Regional Weather Roundup
Issued by NWS

Home | Current Version | Previous Version | Text Only | Print | Product List | Glossary On
Versions: 1 2 3 4 5 6 7 8 9 10 11 12 13 14 15 16 17 18 19 20 21 22 23 24 25 26 27 28 29 30 31 32 33 34 35 36 37 38 39 40 41 42 43 44 45 46 47 48 49 50
000
ASUS44 KFWD 252015
RWRTX
NORTH TEXAS HOURLY WEATHER ROUNDUP
NATIONAL WEATHER SERVICE FORT WORTH TX
300 PM CDT MON MAY 25 2015

NOTE: "FAIR" INDICATES FEW OR NO CLOUDS BELOW 12,000 FEET WITH NO
SIGNIFICANT WEATHER AND/OR OBSTRUCTIONS TO VISIBILITY.

TXZ118-119-252100-
DALLAS/FORT WORTH METROPLEX

CITY           SKY/WX    TMP DP  RH WIND       PRES   REMARKS
DFW AIRPORT    TSTM      63  63 100 W25G37    29.90R FOG
DALLAS LOVE    CLOUDY    79  69  71 SW10      29.85R THUNDER
FTW MEACHAM    TSTM      64  62  93 W9G25     29.94R VSB 1
DAL-EXECUTIVE  LGT RAIN  75  70  84 SW12      29.87R
FTW-ALLIANCE   TSTM      63  61  93 NW13G21   29.90R
FTW-NAS-JRB    TSTM      64  62  93 W8G23     29.95R VSB 3/4
FTW-SPINKS     TSTM      73  64  73 NW24      29.90
ARLINGTON      TSTM      69  61  75 W13G33    29.91R
GRAND PRAIRIE  MOSUNNY   79  72  78 S16G25    29.90R
ADDISON        CLOUDY    77  70  78 S12G25    29.86R
MESQUITE       MOSUNNY   79  70  73 SE20G30   29.80F
LANCASTER      CLOUDY    77  68  74 S16G32    29.82R
$$

TXZ091>094-102>105-117-120-121-131>134-252100-
NORTH CENTRAL TEXAS

CITY           SKY/WX    TMP DP  RH WIND       PRES   REMARKS
SHRMAN/DENISON TSTM      72  69  91 S7        29.85R
GAINESVILLE    LGT RAIN  63  60  88 W10G25    29.94R
BOWIE          RAIN      60  60 100 SE6       29.87F
BRIDGEPORT     RAIN      62  62 100 E3        29.91R
DECATUR        RAIN      61  61  98 NW3       29.93R
DENTON         TSTM      63  61  93 NW16G23   29.90R
MCKINNEY       CLOUDY    78  70  76 S14       29.86R
GREENVILLE     CLOUDY    81  68  65 S16G24    29.84R
ROCKWALL       CLOUDY    78  70  76 SE18G33   29.80F
TERRELL        CLOUDY    80  70  71 S22G30    29.83F
WAXAHACHIE     LGT RAIN  74  73  95 S8        29.85R
CLEBURNE       HVY RAIN  63  63 100 W24G31    29.94R VSB 3/4
GRANBURY       CLOUDY    64  61  91 E10       29.87F
$$

TXZ083>090-098>101-113>116-127>130-139>142-154-155-252100-
WESTERN NORTH TEXAS

CITY           SKY/WX    TMP DP  RH WIND       PRES   REMARKS
WICHITA FALLS  CLOUDY    62  59  90 NE12      29.77S
WF-KICKAPOO    CLOUDY    63  59  86 NE9       29.79S
VERNON         CLOUDY    68  55  61 W12       29.83R
ABILENE        CLOUDY    63  57  81 NW8       29.88R
ABILENE-DYESS  CLOUDY    65  54  67 NW9       29.86F
GRAHAM         CLOUDY    62  62  99 NW6       29.80R
MINERAL WELLS  CLOUDY    64  60  87 S8G18     29.76F
STEPHENVILLE   CLOUDY    62  60  94 E7        29.85F
COMANCHE       CLOUDY    60  60 100 SE8       29.87F
BROWNWOOD      CLOUDY    61  61 100 S6        29.90R
COLEMAN        CLOUDY    64  61  93 W3        29.89R
$$

TXZ143>147-156>162-174-175-252100-
CENTRAL TEXAS

CITY           SKY/WX    TMP DP  RH WIND       PRES   REMARKS
WACO           TSTM      72  69  90 S29G38    29.85R FOG
WACO-MCGREGOR    N/A    N/A N/A N/A MISG        N/A
HILLSBORO      TSTM      74  70  87 S3        29.87R
CORSICANA      CLOUDY    80  71  74 SE13      29.83F
MEXIA          TSTM      75  72  91 E14G28    29.84F
HEARNE         CLOUDY    76  74  93 E3        29.82F
CAMERON        CLOUDY    75  73  91 CALM      29.81F
TEMPLE         PTSUNNY   73  66  78 E10G18    29.84R THUNDER
KILLEEN        LGT RAIN  71  69  93 SW6       29.84F
KILLEEN-SKYLRK CLOUDY    75  66  73 S16       29.87R THUNDER
FORT HOOD      TSTM      72  70  94 E13G35    29.84R VSB 1/2
GATESVILLE     FOG       63  63 100 N12G32    29.92R VSB 1
HAMILTON       TSTM      63  63 100 SE9       29.92F
LAMPASAS       TSTM      64  62  94 NW14G20   29.89R
$$

TXZ095>097-106>112-122>126-135>138-148>153-164>167-252100-
EAST TEXAS

CITY           SKY/WX    TMP DP  RH WIND       PRES   REMARKS
PARIS          PTSUNNY   82  68  61 SE20G29   29.83F
SULPHUR SPRNGS PTSUNNY   83  67  58 S21       29.85F
MOUNT PLEASANT PTSUNNY   84  69  61 SE18      29.85F
GILMER         PTSUNNY   83  72  68 SE10      29.87F
MINEOLA        PTSUNNY   82  72  69 SE10G21   29.86F
TYLER          PTSUNNY   85  72  65 SE14      29.86F HX  91
LONGVIEW       CLOUDY    85  72  65 SE15G21   29.87F HX  91
MARSHALL       PTSUNNY   89  76  65 SE6       29.91F HX  99
ATHENS         PTSUNNY   81  70  69 SE10G16   29.83F
PALESTINE      PTSUNNY   82  71  68 SE10G21   29.86F
JACKSONVILLE   PTSUNNY   85  72  65 S13       29.90F HX  90
HENDERSON      PTSUNNY   84  70  63 S9G18     29.88F
NACOGDOCHES    PTSUNNY   77  72  83 S7        29.89F
LUFKIN         PTSUNNY   87  73  62 SE16      29.89F HX  94
$$

SUPPLEMENTAL OBSERVATIONS (CENTRAL)

CITY           SKY/WX    TMP DP  RH WIND       PRES   REMARKS
LAKE TEXOMA      N/A     72  68  88 SW14        N/A
CADDO GRASSLND   N/A     79  68  69 S12         N/A
PAT MAYSE LAKE   N/A     79  72  78 E13         N/A
GREENVILLE       N/A     81  68  65 S12G22      N/A
CEDAR HILL       N/A     73  70  88 SW8G26      N/A
ATHENS           N/A     82  70  65 S15         N/A
LAKE LIMESTONE   N/A     75  72  88 SE6         N/A
MCGREGOR         N/A     70  64  83 SE14G26     N/A
TEMPLE           N/A     72  66  83 NW1G26      N/A
$$

SUPPLEMENTAL OBSERVATIONS (WEST)

CITY           SKY/WX    TMP DP  RH WIND       PRES   REMARKS
MILLERS CREEK    N/A     63  59  88 NW10        N/A
POSSUM KINGDOM   N/A     63  57  82 SE8G16      N/A
LBJ GRASSLAND    N/A     63  59  88 NE5G17      N/A
GRANBURY         N/A     63  59  88 E13G30      N/A
COMANCHE         N/A     61  59  94 S9G17       N/A
HAMBY            N/A     63  57  82 W7          N/A
IVIE RESERVOIR   N/A     68  61  77 W8          N/A
COLORADO BEND    N/A    N/A N/A N/A NE5G18      N/A
$$

SUPPLEMENTAL OBSERVATIONS (EAST)

CITY           SKY/WX    TMP DP  RH WIND       PRES   REMARKS
CLARKSVILLE      N/A     82  70  65 SE15        N/A
TEXARKANA        N/A     84  73  70 SE3G12      N/A  HX  91
LINDEN           N/A     84  68  58 S6          N/A
CADDO LAKE       N/A     86  72  62 SE6         N/A  HX  92
GILMER           N/A     84  70  61 SE13        N/A
HENDERSON        N/A     86  72  62 S9G17       N/A  HX  92
N SABINE NF      N/A     88  75  66 MISG        N/A  HX  97
S SABINE NF      N/A     90  72  55 CALM        N/A  HX  96
$$

SUPPLEMENTAL OBSERVATIONS ARE A COLLECTION OF AUTOMATED INSTRUMENTS
THAT ARE MAINTAINED BY A VARIETY OF FEDERAL AND STATE AGENCIES.
CERTAIN ELEMENTS...SUCH AS HUMIDITY VALUES AND SUSTAINED WIND
SPEEDS...MAY BE APPROXIMATED.




USA.gov is the U.S. government's official web portal to all federal, state and local government web resources and services.